GFSGBSN_prec_cthk_135.txt.gz
RH
91 89 90 89 89 88 89 88 81 80 80 83 78 77 73 72 69 72 76 68 61 58 51 40 38 29 25 24 21 19 18 19 18 15 12 14 18 18 17 17 15 14 15 16 15 15 15
88 88 87 91 93 91 95 95 88 88 88 87 87 84 77 65 64 67 77 72 66 57 54 46 35 28 25 24 20 18 16 15 12 11 13 18 18 17 15 15 15 15 15 15 15 14 14
91 91 86 87 93 96 99 96 96 96 97 88 87 82 74 57 63 64 71 76 73 66 59 56 46 35 30 26 24 22 16 14 13 14 17 17 17 16 14 14 13 13 14 14 11 12 11
95 91 93 94 92 95 94 92 92 99 93 90 84 75 68 62 61 63 64 72 74 74 69 63 57 48 38 30 26 22 21 20 18 17 18 17 17 17 15 14 14 14 14 14 13 13 14
96 92 86 92 91 86 86 78 78 83 87 75 67 63 58 59 57 64 64 70 69 72 66 65 61 52 44 36 31 30 28 26 24 23 21 19 18 18 17 18 16 17 17 18 18 16 16
86 86 81 82 88 81 69 59 58 61 70 63 60 55 56 55 55 57 63 67 65 64 63 59 59 54 44 40 41 41 35 29 26 24 24 23 23 26 25 23 20 20 21 21 22 19 20
62 71 69 65 74 72 65 54 52 50 56 48 58 53 55 59 57 61 67 65 66 59 55 58 56 56 49 48 44 39 34 32 30 29 30 30 30 31 29 28 29 29 27 26 25 24 23
54 54 54 61 65 75 73 62 43 39 40 39 38 43 49 60 57 62 60 63 64 50 44 44 42 35 36 42 45 43 37 33 28 28 28 28 31 29 29 30 31 34 34 31 26 27 29
58 56 55 48 43 47 59 65 56 53 42 41 36 37 39 44 47 53 58 57 49 51 42 26 23 25 24 25 31 41 42 35 32 30 27 27 25 25 29 31 32 33 35 30 30 32 33
55 59 50 44 36 32 30 36 50 54 54 53 47 50 50 51 46 42 41 40 38 34 33 26 25 27 30 32 32 33 40 32 27 27 26 26 25 29 30 32 34 35 35 35 35 40 42
44 41 46 50 43 39 33 27 25 32 37 36 40 41 53 46 42 40 39 37 36 34 32 25 32 27 29 30 27 24 24 25 26 27 27 29 29 29 31 31 35 35 37 39 42 46 46
54 48 42 39 42 44 37 31 31 30 31 32 39 43 48 54 51 49 43 42 40 43 42 31 29 28 27 28 28 28 26 27 27 27 28 29 28 30 30 30 33 35 44 49 51 52 60
48 53 49 42 38 36 38 38 38 34 31 31 36 42 51 55 54 55 54 53 58 61 34 37 33 33 33 31 29 27 27 28 27 28 27 26 25 27 34 37 40 46 53 67 68 75 67
59 52 49 52 50 39 34 32 34 34 26 24 38 44 51 54 51 52 50 56 61 41 39 43 41 37 33 30 27 27 28 28 27 30 35 36 36 34 39 40 43 53 58 71 79 77 70
62 60 55 51 58 53 43 42 33 34 31 30 30 35 44 50 49 49 54 62 49 39 35 37 39 44 43 33 29 31 30 28 26 29 36 39 35 35 37 45 51 54 64 64 72 69 80
65 65 71 73 58 51 49 45 43 42 40 36 39 40 37 42 53 58 54 50 41 38 40 37 32 33 38 35 31 27 26 30 29 29 31 35 42 35 38 47 54 64 64 82 90 95 85
56 60 63 69 65 73 75 68 61 40 35 31 37 34 34 39 42 47 53 52 48 39 32 31 32 32 32 30 25 25 30 32 37 37 36 38 41 35 43 47 60 67 68 76 80 82 87
63 60 58 53 54 60 64 64 65 75 63 59 49 40 48 52 56 55 50 45 37 25 27 26 26 27 26 24 26 29 26 30 36 41 44 41 50 48 42 45 59 64 66 76 98 84 90
62 59 59 58 54 52 49 55 53 53 60 61 56 59 55 49 53 53 47 43 38 27 24 25 24 25 26 30 34 33 33 25 24 33 43 42 49 58 48 63 72 78 79 86 96 98 98
67 62 60 60 57 57 56 50 53 48 54 48 45 48 60 61 52 50 53 49 41 33 30 28 27 28 31 32 36 38 36 30 25 31 36 48 58 59 69 76 84 85 79 78 82 86 86
64 58 58 60 60 59 56 56 55 52 61 56 41 38 45 55 59 51 45 41 39 35 29 26 26 24 23 31 31 33 33 32 34 38 39 50 56 55 57 71 76 80 82 80 82 72 83
59 64 57 55 58 57 58 51 52 53 61 65 54 45 42 43 42 47 42 40 38 30 28 27 27 26 25 29 27 32 36 40 44 48 45 47 52 58 58 54 61 69 72 76 74 61 63
77 69 63 61 63 63 60 58 55 57 57 58 58 49 40 38 42 43 39 36 34 32 28 27 27 29 30 26 29 32 38 49 49 51 55 58 61 65 54 48 56 70 68 69 74 66 67
91 82 74 67 66 64 65 63 58 54 56 59 57 58 49 43 39 35 34 35 32 30 28 28 27 29 22 29 38 45 47 50 57 58 55 53 55 61 59 62 78 66 71 71 77 66 71
89 85 82 78 71 65 65 70 70 57 52 54 66 63 54 49 42 44 41 35 32 32 33 32 27 28 37 43 54 58 57 58 56 59 55 53 65 74 79 75 71 71 73 76 75 55 55
83 84 82 79 73 72 74 72 79 74 59 60 59 69 65 52 49 47 49 44 44 42 39 39 42 43 44 47 71 66 69 70 68 60 45 48 66 82 96 95 95 74 74 78 69 63 55
77 78 75 71 75 69 73 81 92 90 85 82 72 71 77 64 52 49 49 48 49 44 45 49 52 52 50 57 66 68 74 71 74 60 50 74 90 96 98 97 87 70 74 72 68 55 56
60 62 63 61 66 63 64 69 91 97 97 91 79 81 87 88 67 55 49 48 50 49 52 57 58 60 64 68 66 65 76 73 66 58 72 80 91 92 93 95 83 69 74 75 69 67 65
60 57 54 57 63 65 61 71 88 96 98 93 88 84 84 92 93 82 64 55 47 49 47 46 53 65 79 75 72 74 73 74 60 73 73 83 83 85 83 83 78 78 80 79 78 77 70

GFSGBSN_prec_cthk_138.txt.gz
RH
86 86 85 85 81 83 83 84 84 82 80 79 77 76 74 72 72 71 69 68 73 67 59 54 50 37 33 28 25 21 19 18 17 15 14 16 17 17 17 16 14 14 16 16 15 16 16
91 88 86 85 82 85 87 84 82 86 84 89 84 79 81 79 77 70 65 68 76 68 63 56 53 47 34 29 24 25 23 16 11 11 14 16 16 16 15 14 13 13 12 13 13 13 13
92 93 95 90 85 83 86 83 84 88 88 99 88 88 88 84 81 67 63 69 73 72 70 64 59 55 45 33 28 26 19 16 16 15 15 15 15 14 14 14 12 12 12 12 11 12 12
96 94 92 91 88 88 86 84 80 87 93 98 91 89 91 83 81 73 66 67 68 70 71 69 63 61 56 47 40 32 26 22 21 20 19 19 17 17 16 15 14 14 13 14 12 13 12
95 93 92 95 91 90 87 83 84 84 89 90 93 92 89 79 75 62 64 60 64 67 65 64 65 62 56 49 43 40 39 34 27 25 24 24 20 21 20 20 18 19 18 18 17 15 14
89 91 90 90 92 88 85 82 81 83 82 78 88 89 85 68 63 60 59 59 64 64 63 60 53 59 55 51 50 48 39 35 35 30 31 28 26 28 27 24 27 24 24 24 25 23 21
84 84 82 82 86 90 84 84 87 81 70 62 69 73 76 60 67 56 60 57 60 62 60 58 55 49 53 51 46 48 44 38 38 34 31 32 31 29 26 26 27 28 30 30 27 27 25
71 67 65 66 67 72 72 75 79 83 71 63 59 67 56 73 59 60 59 58 52 58 52 57 53 41 32 28 31 34 36 35 36 41 39 40 34 28 27 26 27 29 31 32 29 28 27
65 65 67 67 57 53 56 64 69 72 73 60 59 58 61 50 53 50 58 53 55 60 52 38 32 30 28 27 29 27 28 24 27 34 42 41 34 28 26 27 30 31 32 32 32 31 33
54 58 59 64 64 56 55 53 54 57 68 66 56 49 48 49 46 43 48 48 54 49 42 30 30 31 30 30 29 27 32 33 29 29 31 31 28 28 29 30 30 33 30 32 32 35 41
52 51 52 52 50 54 55 51 45 42 49 64 59 62 65 72 66 57 55 56 52 44 40 28 35 28 34 33 27 27 29 31 30 30 29 29 27 27 29 26 27 28 28 32 35 40 41
57 58 47 44 43 42 45 45 45 39 35 36 46 54 61 61 57 55 54 53 46 44 45 29 30 30 33 32 30 30 29 30 29 29 28 26 25 25 27 27 33 32 34 40 47 49 58
52 52 56 56 46 40 38 39 39 43 33 32 33 40 47 50 49 51 54 54 61 61 34 36 33 35 36 36 34 34 32 29 28 28 28 28 27 29 31 33 37 40 46 59 60 68 58
67 61 56 51 52 49 46 39 33 38 39 36 41 50 69 63 53 59 62 69 68 41 44 46 44 39 41 40 36 30 28 27 26 28 32 33 31 27 34 36 39 44 49 65 71 73 63
77 71 64 57 52 47 48 48 35 36 32 30 48 52 58 55 63 56 58 66 60 45 42 46 47 51 49 43 36 31 30 29 23 25 30 38 37 27 28 37 42 47 54 57 72 68 79
72 79 77 64 60 49 47 45 45 51 33 29 36 45 61 68 65 71 68 64 52 40 41 42 47 46 48 40 37 33 29 24 24 26 28 31 41 33 28 31 40 47 54 67 86 91 89
63 60 67 74 70 59 50 47 46 51 44 33 33 46 44 56 61 54 68 62 52 43 47 44 38 38 41 41 33 25 21 23 28 31 31 36 42 42 38 33 30 36 51 73 85 90 96
65 56 54 54 78 83 61 48 52 52 52 45 41 44 46 49 68 83 76 63 50 46 41 37 37 43 39 30 26 27 23 20 26 30 36 41 51 53 40 31 39 47 57 72 88 91 94
68 62 55 53 61 70 81 80 77 67 62 58 49 50 45 46 53 56 54 52 51 37 33 40 36 28 25 25 27 29 29 25 20 21 30 36 46 53 39 45 55 60 67 79 87 86 84
83 70 64 57 52 46 56 74 77 78 85 79 71 57 58 53 51 54 58 59 53 46 36 33 29 26 28 29 30 31 32 30 26 24 28 39 47 48 54 55 60 64 61 74 84 90 84
93 86 69 69 60 50 52 56 66 67 71 72 70 72 69 83 77 70 61 56 54 50 40 36 34 26 30 39 36 32 30 28 25 27 38 48 56 53 50 57 61 55 55 57 68 67 83
97 90 79 74 70 63 59 57 64 69 70 74 55 54 59 60 59 64 61 60 59 50 44 36 35 27 29 31 21 26 28 34 38 41 42 47 55 57 53 52 50 48 47 44 41 50 63
98 98 98 84 75 73 68 65 61 63 66 79 66 50 48 48 52 54 49 49 50 43 42 36 32 32 29 25 26 26 27 28 36 41 54 56 59 62 52 48 50 50 34 38 49 53 61
94 98 97 88 77 72 72 72 67 64 63 67 71 61 53 49 49 46 41 37 36 36 32 32 29 33 30 29 28 28 29 32 38 36 41 53 63 68 66 66 67 39 44 54 62 64 71
93 89 93 92 85 72 76 74 70 62 66 62 73 72 62 56 49 45 43 40 38 35 37 32 27 27 31 35 38 42 42 40 38 37 43 54 69 77 81 73 55 52 56 65 69 65 66
94 89 87 90 91 90 81 80 82 74 68 68 65 73 66 62 53 49 49 43 42 41 39 33 28 36 40 37 49 51 58 50 46 44 45 61 72 81 87 83 79 66 72 76 75 72 62
92 86 77 79 86 88 87 85 80 76 75 69 59 63 78 78 60 53 49 45 45 46 45 45 43 49 49 54 54 51 61 57 55 47 53 69 78 84 82 92 83 72 77 80 87 69 66
91 88 73 72 74 79 82 82 82 78 83 81 68 62 69 79 74 63 57 48 46 48 52 48 55 60 60 63 62 58 60 51 49 47 57 71 81 84 91 96 92 81 82 85 82 80 77
84 83 71 66 67 65 68 77 79 83 90 93 82 76 73 77 80 79 65 62 57 50 55 60 57 60 67 64 62 61 64 63 58 60 53 72 64 82 89 83 80 84 86 84 79 83 80

GFSGBSN_prec_cthk_141.txt.gz
RH
78 76 79 80 78 75 77 75 73 80 80 79 80 78 77 73 76 76 70 67 64 65 68 63 52 49 44 37 34 27 23 22 18 14 17 17 17 17 16 15 14 12 13 14 14 14 15
87 85 87 89 84 84 82 78 80 84 86 87 82 77 80 83 81 79 78 73 63 61 72 64 58 55 50 44 35 30 25 19 16 17 20 16 14 13 14 13 12 12 12 11 10 11 12
92 92 90 95 94 86 83 80 81 84 86 84 82 82 86 88 84 82 82 81 65 59 68 66 65 61 57 51 44 36 27 24 19 17 17 18 16 15 14 14 13 13 12 11 11 11 11
96 92 94 97 93 90 86 82 83 83 84 84 83 84 91 91 87 88 83 80 73 61 63 65 65 63 58 55 54 44 39 38 33 30 25 20 18 17 17 17 15 14 14 13 13 13 13
98 96 95 95 96 90 87 85 83 82 84 85 85 85 88 96 92 89 86 76 67 64 59 56 58 58 54 52 48 47 45 43 40 37 34 28 23 22 21 21 19 19 17 19 18 17 16
96 95 96 94 96 92 88 87 88 83 77 78 81 84 89 95 94 91 84 65 61 60 57 57 54 53 47 48 49 51 52 49 45 39 36 34 31 26 25 24 23 22 23 24 24 22 22
89 91 92 92 93 88 86 88 88 86 81 79 77 82 84 93 88 94 77 67 56 55 51 51 55 56 51 49 45 39 40 37 35 39 38 38 37 35 30 29 29 29 32 32 26 25 26
76 82 83 88 88 84 77 79 86 86 83 80 79 77 75 84 80 84 77 72 59 58 50 43 44 42 45 42 41 36 29 28 28 31 34 36 36 34 34 32 33 35 34 31 29 27 28
61 65 69 69 73 74 70 66 67 75 79 79 79 80 75 73 86 82 74 66 58 61 55 38 32 31 32 34 34 31 32 29 27 27 29 33 30 27 28 35 39 37 32 30 30 28 29
55 58 59 62 63 66 69 69 62 56 62 73 74 74 77 80 77 74 65 65 60 53 45 31 30 36 37 36 33 32 32 31 31 30 28 27 26 29 30 30 28 29 25 28 30 32 33
57 57 55 60 58 55 58 60 59 54 51 56 62 65 66 58 58 57 54 55 53 49 39 35 40 40 41 38 31 30 34 33 31 30 30 29 29 28 28 28 28 29 26 29 31 35 39
52 52 53 58 57 52 51 48 52 53 52 49 48 57 66 69 64 64 64 64 65 58 55 40 39 34 39 32 30 30 32 32 32 32 31 28 28 28 27 28 30 31 33 36 41 42 44
63 54 52 52 53 56 52 46 42 41 47 46 48 46 59 70 81 85 76 74 70 61 41 41 36 34 39 38 39 39 38 38 35 34 31 28 27 28 30 31 33 35 39 43 46 53 46
76 67 64 56 52 51 53 55 44 38 37 41 49 58 53 52 57 73 63 64 67 48 47 48 45 42 44 42 40 39 39 35 32 30 31 30 30 31 29 32 33 35 38 45 62 56 48
67 71 69 66 58 55 52 53 56 52 42 39 48 61 61 66 67 63 68 69 55 51 46 51 52 49 49 46 42 42 37 32 27 28 32 36 33 31 30 28 31 37 45 47 52 48 59
61 59 62 74 73 62 58 57 50 51 51 41 50 54 68 72 74 63 71 71 61 45 48 49 52 52 52 46 44 40 34 30 29 28 29 31 38 31 29 27 28 32 33 42 57 68 63
72 63 55 59 66 73 68 60 56 51 49 42 56 62 50 58 64 67 78 70 64 58 52 52 52 53 45 48 43 39 31 30 32 29 27 32 37 37 36 30 28 26 32 45 53 59 71
86 80 70 58 59 65 71 71 57 57 50 44 56 60 71 63 80 80 80 68 60 53 51 48 46 46 46 49 39 32 29 27 26 26 29 33 39 40 35 32 32 38 46 55 64 69 79
82 88 86 70 58 56 63 70 66 57 54 43 46 55 60 72 81 78 71 66 65 65 50 44 43 41 46 41 36 39 33 20 20 19 24 31 36 40 29 41 49 55 56 62 68 71 68
90 88 85 87 70 54 55 67 74 70 61 55 43 50 56 58 60 57 64 67 67 67 60 46 43 46 37 40 40 37 33 33 27 25 24 30 37 38 42 40 44 49 50 60 62 67 60
98 96 89 84 80 65 55 60 79 84 68 64 53 56 54 64 61 64 66 61 59 54 48 42 44 41 42 46 38 38 36 32 31 33 27 32 42 43 45 47 45 43 45 42 46 45 58
98 99 96 93 83 78 62 60 64 82 97 95 73 74 77 65 62 64 57 55 52 56 54 53 48 42 40 40 35 33 32 36 32 32 38 41 47 47 47 45 43 44 44 40 36 36 37
96 93 99 94 95 88 73 61 68 68 69 85 89 77 77 84 85 81 74 75 74 72 66 54 52 47 44 38 36 38 36 34 32 34 39 41 44 47 44 46 49 45 40 42 40 44 50
88 90 96 98 98 96 92 75 71 69 65 63 66 64 61 69 70 71 70 64 61 53 53 54 50 52 51 44 37 30 27 26 30 31 34 38 40 53 54 65 58 40 38 38 45 44 58
86 89 99 91 91 92 99 91 82 77 74 66 73 69 65 65 54 53 59 58 58 54 50 49 45 43 42 38 37 37 37 35 30 29 32 40 51 64 76 65 49 41 41 52 63 62 62
95 95 96 94 98 98 99 99 94 84 81 76 71 83 75 69 70 61 58 52 52 53 52 43 37 37 37 37 39 45 40 41 42 41 41 48 62 76 80 78 66 45 56 68 78 71 72
98 94 91 97 98 97 96 95 92 90 85 79 77 74 85 81 80 76 69 63 55 50 47 43 40 41 43 51 48 46 39 42 45 43 48 55 62 71 75 79 62 52 68 84 90 76 78
98 99 98 97 97 94 91 87 88 89 81 82 74 76 81 83 80 73 65 56 52 48 47 48 56 58 59 58 55 52 53 46 47 45 42 41 55 65 71 77 69 65 79 88 85 86 87
98 98 97 93 87 82 82 75 79 86 89 96 88 79 73 76 79 72 72 66 58 53 52 56 56 57 60 60 58 54 51 52 47 55 49 56 50 57 60 59 63 73 78 78 84 86 85

GFSGBSN_prec_cthk_144.txt.gz
RH
69 69 67 68 69 69 70 75 74 75 75 76 77 80 79 76 75 70 72 72 68 64 54 56 62 56 49 45 37 32 28 25 18 16 20 20 19 17 15 14 13 12 12 12 12 12 13
85 84 85 85 84 85 82 84 82 83 81 81 82 85 84 80 75 73 73 77 74 71 59 53 61 59 57 54 44 36 30 24 19 19 19 19 18 17 16 13 11 12 11 11 10 10 10
91 92 92 90 91 90 91 90 86 86 84 78 85 83 84 83 79 78 79 82 76 73 66 57 58 61 58 58 52 47 38 29 26 24 24 23 22 21 18 16 15 14 14 12 12 12 11
94 94 94 94 91 90 94 95 89 87 89 83 87 83 83 84 82 81 82 88 79 75 71 59 58 61 58 55 54 50 42 41 38 35 34 32 29 25 24 19 16 15 15 13 13 13 13
93 93 94 95 92 98 93 93 91 88 90 88 85 83 82 83 83 86 85 88 83 76 67 65 58 59 54 50 48 44 45 45 45 42 40 38 35 34 30 23 19 17 17 17 18 19 19
92 90 92 93 90 96 96 95 90 85 91 88 81 76 76 80 85 87 88 90 85 76 62 59 56 55 49 49 42 42 44 47 48 45 40 36 37 35 33 32 27 24 22 22 22 23 22
79 81 81 84 86 92 92 93 93 88 90 88 84 77 75 76 82 91 93 89 84 79 64 56 53 53 51 49 51 50 47 41 35 31 31 29 30 32 33 31 31 31 30 27 26 25 28
76 75 76 77 84 85 90 88 89 90 88 89 85 81 77 74 79 86 93 88 86 78 66 54 47 43 41 46 51 48 44 38 33 30 28 27 25 28 28 31 31 31 31 31 33 32 32
69 68 64 69 70 81 79 84 84 85 84 85 82 81 76 75 74 86 86 85 87 77 65 50 44 40 36 34 35 38 38 35 33 34 33 31 31 26 24 26 28 26 27 27 29 30 28
64 64 58 61 61 64 72 68 73 75 76 74 78 74 77 76 77 81 91 88 84 75 59 45 39 37 35 35 34 35 37 36 32 32 31 30 27 26 27 28 27 26 26 26 26 27 28
57 59 58 55 55 68 68 65 60 57 65 67 65 64 71 75 78 72 77 75 72 70 58 44 45 42 41 38 34 37 41 38 37 31 28 31 29 30 29 28 28 30 29 28 29 30 33
64 60 54 54 54 58 65 63 57 58 58 61 59 58 61 73 69 65 57 62 80 69 56 46 44 42 45 40 37 37 35 32 31 31 31 32 30 29 29 29 30 31 31 31 32 32 35
75 73 65 61 55 56 56 60 60 55 55 58 63 59 65 64 66 70 67 69 72 66 45 43 43 41 49 41 37 35 35 35 35 36 34 31 29 28 31 32 32 32 32 35 40 50 41
66 69 74 71 61 57 55 53 55 52 52 50 54 56 59 68 66 82 77 79 83 53 51 54 47 44 48 44 43 43 42 39 37 34 31 28 34 32 30 30 29 32 30 36 44 45 40
54 61 63 67 74 67 62 57 54 50 47 48 50 56 60 60 77 85 93 91 71 61 50 55 51 49 52 48 46 45 44 42 37 34 32 31 32 32 32 28 25 32 32 40 42 40 42
57 53 53 59 62 69 71 65 59 54 48 50 47 56 66 65 77 89 81 69 66 56 50 52 51 52 52 51 49 48 47 40 36 32 31 35 39 34 31 27 27 26 30 33 44 59 47
70 69 68 61 54 54 63 73 66 60 56 52 61 63 67 75 86 96 91 71 67 58 54 55 52 50 52 52 49 47 40 36 35 36 33 35 39 36 27 27 26 31 32 38 42 42 57
78 75 77 78 71 56 53 57 66 72 66 57 69 68 77 63 68 70 74 72 70 62 56 59 63 62 57 55 54 52 36 34 35 32 32 35 35 28 31 27 29 29 31 38 54 54 63
76 78 77 85 83 76 63 56 55 69 78 63 73 69 68 87 91 88 86 80 70 69 64 61 57 57 58 57 53 42 38 36 33 29 30 33 31 27 28 39 44 48 47 47 52 57 53
75 80 84 82 87 88 79 66 59 53 70 73 76 80 75 74 67 70 70 68 70 70 67 59 56 52 46 45 43 41 38 39 37 30 25 22 23 29 26 29 35 41 42 44 46 60 48
76 89 93 84 88 88 90 78 71 58 71 72 68 74 61 76 78 81 86 86 85 79 65 56 63 55 48 48 44 46 42 45 38 33 32 29 30 36 37 35 37 38 39 35 34 36 50
65 82 98 95 97 95 91 83 74 71 68 80 52 54 58 56 62 70 84 86 75 57 56 60 56 50 47 43 43 42 47 41 35 29 28 36 45 46 46 32 39 40 40 38 37 37 42
60 78 93 95 97 98 98 93 85 80 70 73 63 59 59 53 55 63 64 65 56 58 62 60 54 53 55 47 51 45 40 37 33 34 42 43 39 40 37 33 38 41 42 40 34 36 43
55 74 86 89 97 96 97 98 95 79 80 75 67 66 61 69 64 63 58 56 57 66 64 59 65 63 57 55 51 46 42 38 39 41 35 32 33 39 39 39 52 40 33 33 39 44 59
57 67 87 95 98 95 95 98 97 83 82 85 86 73 70 78 83 88 88 85 80 74 76 66 61 63 62 56 52 51 52 44 32 26 25 33 36 47 54 47 42 40 40 40 48 56 68
59 80 92 98 97 99 95 96 94 92 84 88 75 77 73 79 81 81 79 77 75 75 72 65 61 55 55 50 44 42 35 34 37 38 35 39 44 58 57 65 54 42 45 50 57 68 79
59 82 98 95 95 97 98 98 97 96 92 84 79 80 85 74 72 65 70 67 60 62 58 54 58 55 49 48 48 46 39 37 37 34 44 49 57 63 58 59 50 43 46 54 71 81 82
90 99 94 86 89 90 96 99 99 93 92 87 94 83 93 81 83 75 70 76 73 67 67 66 64 66 60 58 48 45 36 38 36 34 38 44 51 59 53 59 61 48 54 61 72 79 80
97 98 98 94 92 96 98 94 96 92 97 95 95 96 95 97 93 84 78 76 73 76 72 68 70 62 57 51 48 48 51 48 44 51 42 48 41 49 56 53 59 54 55 62 70 79 85

GFSGBSN_prec_cthk_150.txt.gz
RH
58 57 56 57 59 61 62 64 64 66 63 59 60 63 65 65 68 67 67 69 66 63 59 59 57 58 57 46 50 44 39 32 24 21 21 19 17 17 20 20 16 14 15 12 11 12 10
76 72 69 65 65 67 66 67 67 68 66 64 66 68 72 71 73 70 70 69 69 67 65 64 61 61 60 52 45 46 42 38 30 25 24 22 20 17 17 17 17 17 14 12 12 11 10
94 90 89 87 89 85 83 79 80 79 79 82 81 81 79 77 75 75 75 72 71 69 69 66 63 63 60 51 47 43 41 40 36 31 29 27 27 25 24 21 21 19 19 17 17 14 14
98 99 96 92 93 91 89 86 84 87 87 87 87 82 82 80 81 80 77 75 71 71 69 70 67 63 61 54 50 45 43 41 38 35 33 32 33 32 31 30 29 29 29 28 24 22 21
97 98 99 95 93 92 91 93 95 97 95 96 92 89 84 83 81 82 76 73 71 70 68 71 66 67 63 55 51 46 45 41 38 35 34 36 34 35 33 31 31 28 30 32 30 27 26
94 98 98 98 94 94 93 89 90 94 95 98 94 89 87 87 82 77 75 76 72 70 69 70 68 66 63 57 53 46 45 43 38 38 37 37 35 34 33 32 33 34 33 33 32 34 32
86 92 94 96 96 92 96 92 83 87 95 94 92 88 82 84 82 77 77 82 82 79 71 67 66 63 63 59 56 51 45 44 41 40 38 36 33 33 33 30 34 33 28 24 23 26 30
78 84 83 86 84 82 78 80 78 79 81 88 88 84 81 79 78 79 81 83 83 74 67 65 66 63 63 66 63 57 47 44 44 44 42 38 34 32 31 31 33 30 26 24 23 23 25
71 70 74 76 80 81 81 80 78 74 75 82 81 81 81 75 77 84 83 85 87 79 71 59 56 53 58 66 59 59 58 50 46 45 42 39 36 35 32 30 31 29 28 29 28 26 25
77 75 71 71 78 77 76 76 78 82 80 79 78 83 80 79 85 86 94 92 89 76 68 53 50 49 50 54 51 54 52 55 47 43 39 36 33 32 33 32 29 31 30 30 28 27 25
77 74 73 70 69 65 67 71 70 72 74 70 71 68 81 76 86 84 95 97 88 74 80 51 54 48 48 52 49 43 43 47 49 44 42 36 37 35 33 30 32 30 32 30 27 24 27
63 65 67 68 69 68 65 62 60 64 66 65 62 64 71 76 79 91 93 90 84 84 73 55 51 49 50 51 48 46 48 47 45 43 45 42 39 35 33 33 32 30 27 26 32 37 45
66 62 64 66 61 63 63 63 62 58 60 62 59 57 57 60 69 83 88 80 90 77 53 53 51 48 49 50 49 46 48 45 46 50 49 43 38 35 30 30 29 32 37 43 42 46 47
64 67 65 66 72 73 71 68 66 63 60 56 56 51 50 51 62 77 84 89 92 52 55 54 49 46 47 50 47 46 50 47 45 40 41 44 47 40 38 36 34 46 47 44 37 42 40
54 58 59 61 68 70 74 73 74 77 74 66 60 56 56 58 64 78 93 98 55 50 56 54 52 48 45 55 46 45 45 46 42 38 39 37 40 42 44 43 37 31 36 42 50 48 46
34 44 54 57 57 62 68 71 71 72 74 76 69 64 62 62 68 77 91 75 62 58 62 61 56 52 51 57 55 51 50 43 46 47 48 47 52 49 50 46 38 29 27 36 43 52 51
30 38 46 49 56 55 59 63 63 64 67 73 72 77 64 61 68 90 93 72 67 68 74 66 61 63 60 60 65 60 55 51 49 53 53 53 60 46 45 45 33 30 38 42 43 48 59
33 39 47 54 63 69 65 71 72 65 61 58 61 69 80 75 80 81 83 71 68 67 79 72 67 67 70 68 67 66 56 54 57 58 54 47 53 48 41 39 43 43 41 46 53 44 43
31 31 36 41 56 70 74 67 78 81 77 70 64 62 69 82 88 76 70 68 69 79 86 81 72 69 71 77 79 69 60 67 61 59 47 49 44 42 36 33 33 40 44 39 43 49 53
31 27 32 34 38 53 69 75 79 83 88 85 78 77 72 79 68 71 73 70 82 84 89 79 77 75 74 71 69 68 69 69 62 57 47 42 41 40 45 43 53 59 64 53 59 72 54
36 37 27 34 36 37 57 67 79 82 92 94 92 78 62 73 67 73 85 85 87 90 86 85 85 81 76 74 72 63 61 71 66 61 49 41 35 30 33 37 37 40 36 35 28 28 39
35 35 31 31 37 33 41 64 76 79 86 98 98 68 74 68 60 73 81 87 87 76 80 84 81 78 73 67 62 68 69 66 64 59 49 41 47 49 49 39 32 30 32 27 28 32 36
48 46 42 34 34 34 31 49 73 82 92 98 96 84 83 71 69 81 65 67 72 78 84 92 91 82 73 58 63 63 63 63 62 55 55 50 50 56 55 42 40 43 44 43 36 33 34
55 54 47 43 40 42 33 43 70 88 98 97 93 95 90 75 76 79 80 80 78 93 88 92 93 90 80 78 76 74 66 63 64 64 65 62 57 61 58 51 56 38 44 39 37 38 41
64 61 53 48 45 45 39 38 68 88 94 98 99 97 86 78 76 76 81 74 81 90 92 88 89 86 89 78 68 68 64 58 54 57 54 41 49 57 60 58 46 47 43 51 54 52 55
71 70 67 60 52 52 46 36 56 94 99 99 98 99 95 86 73 69 74 75 88 93 98 90 90 85 81 72 60 60 54 57 56 53 45 42 48 52 55 56 56 39 56 58 51 52 47
76 80 82 71 62 57 53 39 61 90 99 98 97 99 96 86 85 79 81 83 83 94 95 88 79 77 72 71 71 67 65 60 62 63 79 66 61 64 62 63 49 38 53 56 58 57 56
74 81 88 82 70 61 53 46 54 95 98 99 98 99 98 92 88 83 83 81 76 84 83 83 86 81 76 73 69 69 67 61 60 53 62 72 69 67 64 62 60 46 61 59 59 56 50
65 75 84 86 70 58 48 55 76 97 98 99 99 98 94 81 77 78 79 76 77 77 74 79 78 79 75 71 65 61 64 62 57 70 57 61 67 73 67 61 69 64 60 58 64 51 49